When you browse on this site, cookies collect data to enhance your experience and personalize the content and advertising you see.
Visit our Privacy Policy to learn more. By continuing to use the site, you agree to this use of cookies and data.
  • In France
  • List of Countries
  • For 7 days
  • Water Temperature
  • Satellite Maps
  • Weather Map
  • Weather Widgets
  • user-avatar
    Login

    Hourly Weather Kapan

    Today, 17 July, Wednesday

    Time Temperature Precipitation Wind Pressure Humidity
    00:00 +23°C° 0 mm 2 mps 679 mmHg 68%
    01:00 +23°C° 0 mm 2 mps 679 mmHg 69%
    02:00 +21°C° 0 mm 2 mps 679 mmHg 71%
    03:00 +22°C° 0 mm 1 mps 679 mmHg 72%
    04:00 +23°C° 0 mm 1 mps 679 mmHg 71%
    05:00 +23°C° 0 mm 1 mps 680 mmHg 69%
    06:00 +23°C° 0 mm 1 mps 680 mmHg 67%
    07:00 +25°C° 0 mm 1 mps 680 mmHg 62%
    08:00 +27°C° 0 mm 2 mps 680 mmHg 56%
    09:00 +28°C° 0 mm 2 mps 680 mmHg 50%
    10:00 +29°C° 0 mm 3 mps 680 mmHg 48%
    11:00 +30°C° 0 mm 3 mps 680 mmHg 46%
    12:00 +32°C° 0 mm 4 mps 680 mmHg 44%
    13:00 +32°C° 0 mm 4 mps 680 mmHg 43%
    14:00 +33°C° 0 mm 4 mps 679 mmHg 43%
    15:00 +33°C° 0 mm 4 mps 679 mmHg 43%
    16:00 +32°C° 0 mm 4 mps 679 mmHg 47%
    17:00 +30°C° 0 mm 4 mps 679 mmHg 51%
    18:00 +29°C° 0 mm 4 mps 679 mmHg 56%
    19:00 +27°C° 0 mm 3 mps 679 mmHg 61%
    20:00 +25°C° 0 mm 2 mps 679 mmHg 67%
    21:00 +23°C° 0 mm 1 mps 679 mmHg 73%
    22:00 +23°C° 0 mm 1 mps 679 mmHg 73%
    23:00 +23°C° 0 mm 1 mps 679 mmHg 73%

    Tomorrow, 18 July, Thursday

    Time Temperature Precipitation Wind Pressure Humidity
    00:00 +23°C° 0 mm 2 mps 679 mmHg 73%
    01:00 +21°C° 0 mm 2 mps 679 mmHg 73%
    02:00 +22°C° 0 mm 1 mps 679 mmHg 72%
    03:00 +22°C° 0 mm 1 mps 679 mmHg 72%
    04:00 +23°C° 0 mm 1 mps 679 mmHg 70%
    05:00 +23°C° 0 mm 1 mps 680 mmHg 68%
    06:00 +22°C° 0 mm 0 mps 680 mmHg 67%
    07:00 +25°C° 0 mm 1 mps 680 mmHg 62%
    08:00 +27°C° 0 mm 2 mps 680 mmHg 58%
    09:00 +28°C° 0 mm 2 mps 681 mmHg 53%
    10:00 +29°C° 0 mm 3 mps 681 mmHg 49%
    11:00 +31°C° 0 mm 3 mps 680 mmHg 45%
    12:00 +33°C° 0 mm 3 mps 680 mmHg 41%
    13:00 +33°C° 0 mm 3 mps 680 mmHg 39%
    14:00 +34°C° 0 mm 3 mps 679 mmHg 37%
    15:00 +35°C° 0 mm 4 mps 679 mmHg 35%
    16:00 +34°C° 0 mm 3 mps 679 mmHg 38%
    17:00 +33°C° 0 mm 3 mps 679 mmHg 41%
    18:00 +31°C° 0 mm 3 mps 679 mmHg 44%
    19:00 +29°C° 0 mm 2 mps 679 mmHg 49%
    20:00 +26°C° 0 mm 2 mps 679 mmHg 55%
    21:00 +24°C° 0 mm 1 mps 679 mmHg 61%
    22:00 +24°C° 0 mm 1 mps 679 mmHg 61%
    23:00 +24°C° 0 mm 1 mps 680 mmHg 61%

    Day after tomorrow, 19 July, Friday

    Time Temperature Precipitation Wind Pressure Humidity
    00:00 +24°C° 0 mm 2 mps 680 mmHg 62%
    01:00 +23°C° 0 mm 1 mps 680 mmHg 62%
    02:00 +23°C° 0 mm 1 mps 680 mmHg 62%
    03:00 +23°C° 0 mm 1 mps 680 mmHg 62%
    04:00 +23°C° 0 mm 1 mps 680 mmHg 62%
    05:00 +24°C° 0 mm 1 mps 681 mmHg 62%
    06:00 +24°C° 0 mm 1 mps 681 mmHg 62%
    07:00 +26°C° 0 mm 1 mps 682 mmHg 58%
    08:00 +28°C° 0 mm 2 mps 682 mmHg 54%
    09:00 +29°C° 0 mm 2 mps 682 mmHg 50%
    10:00 +30°C° 0 mm 3 mps 682 mmHg 47%
    11:00 +31°C° 0 mm 3 mps 682 mmHg 44%
    12:00 +33°C° 0 mm 4 mps 682 mmHg 41%
    13:00 +34°C° 0 mm 4 mps 682 mmHg 40%
    14:00 +34°C° 0 mm 4 mps 681 mmHg 39%
    15:00 +34°C° 0 mm 4 mps 681 mmHg 38%
    16:00 +33°C° 0 mm 4 mps 681 mmHg 41%
    17:00 +32°C° 0 mm 4 mps 681 mmHg 44%
    18:00 +30°C° 0 mm 4 mps 681 mmHg 47%
    19:00 +28°C° 0 mm 3 mps 681 mmHg 53%
    20:00 +27°C° 0 mm 2 mps 682 mmHg 59%
    21:00 +25°C° 0 mm 2 mps 682 mmHg 65%
    22:00 +24°C° 0 mm 2 mps 682 mmHg 66%
    23:00 +24°C° 0 mm 2 mps 683 mmHg 67%

    20 July, Saturday

    Time Temperature Precipitation Wind Pressure Humidity
    00:00 +24°C° 0 mm 2 mps 683 mmHg 69%
    01:00 +23°C° 0 mm 2 mps 683 mmHg 67%
    02:00 +23°C° 0 mm 2 mps 683 mmHg 66%
    03:00 +23°C° 0 mm 2 mps 684 mmHg 64%
    04:00 +24°C° 0 mm 2 mps 684 mmHg 63%
    05:00 +24°C° 0 mm 2 mps 684 mmHg 62%
    06:00 +24°C° 0 mm 2 mps 685 mmHg 60%
    07:00 +26°C° 0 mm 2 mps 685 mmHg 56%
    08:00 +27°C° 0 mm 3 mps 686 mmHg 51%
    09:00 +29°C° 0 mm 3 mps 686 mmHg 47%
    10:00 +30°C° 0 mm 4 mps 686 mmHg 44%
    11:00 +32°C° 0 mm 4 mps 686 mmHg 41%
    12:00 +33°C° 0 mm 4 mps 686 mmHg 38%
    13:00 +34°C° 0 mm 4 mps 686 mmHg 37%
    14:00 +34°C° 0 mm 4 mps 686 mmHg 36%
    15:00 +34°C° 0 mm 4 mps 685 mmHg 35%
    16:00 +33°C° 0 mm 4 mps 685 mmHg 38%
    17:00 +32°C° 0 mm 4 mps 685 mmHg 41%
    18:00 +30°C° 0 mm 4 mps 685 mmHg 44%
    19:00 +28°C° 0 mm 3 mps 685 mmHg 50%
    20:00 +26°C° 0 mm 3 mps 685 mmHg 56%
    21:00 +23°C° 0 mm 2 mps 685 mmHg 62%
    22:00 +23°C° 0 mm 2 mps 685 mmHg 62%
    23:00 +23°C° 0 mm 2 mps 685 mmHg 62%

    21 July, Sunday

    Time Temperature Precipitation Wind Pressure Humidity
    00:00 +23°C° 0 mm 2 mps 686 mmHg 63%
    01:00 +23°C° 0 mm 2 mps 686 mmHg 62%
    02:00 +23°C° 0 mm 1 mps 686 mmHg 62%
    03:00 +23°C° 0 mm 1 mps 686 mmHg 61%
    04:00 +23°C° 0 mm 1 mps 686 mmHg 60%
    05:00 +24°C° 0 mm 1 mps 686 mmHg 59%
    06:00 +24°C° 0 mm 1 mps 686 mmHg 58%
    07:00 +26°C° 0 mm 1 mps 686 mmHg 53%
    08:00 +28°C° 0 mm 2 mps 686 mmHg 49%
    09:00 +29°C° 0 mm 2 mps 686 mmHg 44%
    10:00 +30°C° 0 mm 3 mps 686 mmHg 41%
    11:00 +33°C° 0 mm 3 mps 686 mmHg 38%
    12:00 +34°C° 0 mm 3 mps 686 mmHg 35%
    13:00 +35°C° 0 mm 3 mps 685 mmHg 34%
    14:00 +35°C° 0 mm 3 mps 685 mmHg 32%
    15:00 +36°C° 0 mm 3 mps 684 mmHg 31%
    16:00 +35°C° 0 mm 3 mps 684 mmHg 34%
    17:00 +34°C° 0 mm 3 mps 684 mmHg 37%
    18:00 +33°C° 0 mm 3 mps 683 mmHg 39%
    19:00 +30°C° 0 mm 2 mps 683 mmHg 44%
    20:00 +28°C° 0 mm 2 mps 683 mmHg 48%
    21:00 +26°C° 0 mm 1 mps 683 mmHg 53%
    22:00 +26°C° 0 mm 1 mps 683 mmHg 53%
    23:00 +25°C° 0 mm 2 mps 683 mmHg 53%

    22 July, Monday

    Time Temperature Precipitation Wind Pressure Humidity
    00:00 +25°C° 0 mm 2 mps 683 mmHg 54%
    01:00 +25°C° 0 mm 1 mps 683 mmHg 53%
    02:00 +25°C° 0 mm 1 mps 682 mmHg 53%
    03:00 +25°C° 0 mm 1 mps 682 mmHg 53%
    04:00 +25°C° 0 mm 1 mps 682 mmHg 53%
    05:00 +26°C° 0 mm 1 mps 683 mmHg 52%
    06:00 +27°C° 0 mm 1 mps 683 mmHg 52%
    07:00 +28°C° 0 mm 1 mps 683 mmHg 48%
    08:00 +30°C° 0 mm 2 mps 683 mmHg 43%
    09:00 +32°C° 0 mm 2 mps 683 mmHg 39%
    10:00 +34°C° 0 mm 3 mps 683 mmHg 37%
    11:00 +35°C° 0 mm 3 mps 683 mmHg 34%
    12:00 +36°C° 0 mm 4 mps 683 mmHg 32%
    13:00 +36°C° 0 mm 4 mps 682 mmHg 32%
    14:00 +36°C° 0 mm 4 mps 682 mmHg 33%
    15:00 +37°C° 0 mm 4 mps 681 mmHg 33%
    16:00 +35°C° 0 mm 4 mps 681 mmHg 36%
    17:00 +34°C° 0 mm 4 mps 681 mmHg 38%
    18:00 +33°C° 0 mm 4 mps 681 mmHg 41%
    19:00 +30°C° 0 mm 3 mps 681 mmHg 46%
    20:00 +27°C° 0 mm 2 mps 681 mmHg 50%
    21:00 +25°C° 0 mm 2 mps 681 mmHg 55%
    22:00 +25°C° 0 mm 2 mps 681 mmHg 56%
    23:00 +24°C° 0 mm 2 mps 681 mmHg 57%
    Show more